TimeCDT,TemperatureF,Dew PointF,Humidity,Sea Level PressureIn,VisibilityMPH,Wind Direction,Wind SpeedMPH,Gust SpeedMPH,PrecipitationIn,Events,Conditions,WindDirDegrees,DateUTC
12:53 AM,48.0,44.1,86,29.82,9.0,East,5.8,-,N/A,,Clear,90,2014-05-08 05:53:00
1:53 AM,46.9,44.1,90,29.82,7.0,Calm,Calm,-,N/A,,Clear,0,2014-05-08 06:53:00
2:53 AM,45.0,43.0,93,29.81,6.0,ENE,5.8,-,N/A,,Clear,70,2014-05-08 07:53:00
3:53 AM,45.0,43.0,93,29.80,6.0,ENE,3.5,-,N/A,,Clear,70,2014-05-08 08:53:00
4:53 AM,46.0,43.0,89,29.81,6.0,East,3.5,-,N/A,,Clear,90,2014-05-08 09:53:00
5:53 AM,50.0,46.0,86,29.82,5.0,South,8.1,-,N/A,,Clear,180,2014-05-08 10:53:00
6:53 AM,55.9,51.1,84,29.81,8.0,SSW,9.2,-,N/A,,Clear,200,2014-05-08 11:53:00
7:53 AM,68.0,59.0,73,29.81,10.0,SSW,11.5,-,N/A,,Clear,210,2014-05-08 12:53:00
8:53 AM,73.9,61.0,64,29.82,10.0,SSW,16.1,-,N/A,,Clear,210,2014-05-08 13:53:00
9:53 AM,73.9,61.0,64,29.83,10.0,SW,11.5,24.2,N/A,,Clear,220,2014-05-08 14:53:00
10:53 AM,73.9,61.0,64,29.82,10.0,SW,9.2,-,N/A,,Scattered Clouds,220,2014-05-08 15:53:00
11:53 AM,75.0,61.0,62,29.83,10.0,SSW,11.5,-,N/A,,Clear,200,2014-05-08 16:53:00
1:53 PM,81.0,63.0,54,29.82,10.0,South,10.4,-,N/A,,Clear,190,2014-05-08 18:53:00
2:53 PM,86.0,61.0,43,29.80,10.0,SW,16.1,23.0,N/A,,Clear,230,2014-05-08 19:53:00
4:53 PM,84.9,57.0,38,29.75,10.0,South,12.7,23.0,N/A,,Clear,190,2014-05-08 21:53:00
5:53 PM,84.9,57.9,40,29.74,10.0,SSE,8.1,24.2,N/A,,Clear,160,2014-05-08 22:53:00
6:53 PM,84.9,53.1,33,29.73,10.0,South,16.1,-,N/A,,Clear,190,2014-05-08 23:53:00
7:53 PM,82.9,54.0,37,29.74,10.0,SSW,15.0,23.0,N/A,,Clear,210,2014-05-09 00:53:00
8:53 PM,80.1,55.0,42,29.74,10.0,SSW,13.8,-,N/A,,Clear,200,2014-05-09 01:53:00
9:53 PM,80.1,57.9,47,29.75,10.0,SW,19.6,32.2,N/A,,Clear,220,2014-05-09 02:53:00
10:53 PM,73.9,57.9,57,29.76,10.0,SW,11.5,-,N/A,,Partly Cloudy,220,2014-05-09 03:53:00
11:53 PM,72.0,61.0,68,29.77,10.0,SW,15.0,29.9,0.00,Rain,Light Rain,220,2014-05-09 04:53:00